Total_Precipitation_Accumulation
2.14 2.19 2.05 2.00 1.92 1.92 1.93 1.89 1.88 1.88 1.85 1.88 2.02 2.08 2.04 2.09 2.19 2.30 2.11 2.19 2.19 2.23 2.25 2.38 2.44 2.63 2.63 2.55 2.68 2.73 2.76 2.81 2.43 1.91 1.92 2.07 2.11 1.96 1.97 1.87 1.86 1.87 1.80
1.85 1.89 1.88 1.88 1.87 1.78 1.74 1.82 1.89 1.81 1.73 1.79 1.86 1.85 1.77 1.89 2.09 2.11 2.02 2.10 2.16 2.16 2.34 2.59 2.54 2.64 2.71 2.74 2.91 2.73 2.76 3.05 2.90 2.45 2.33 2.45 2.37 2.21 2.17 2.05 1.77 1.66 1.66
1.56 1.62 1.63 1.64 1.61 1.59 1.60 1.66 1.74 1.77 1.77 1.78 1.77 1.71 1.71 1.78 1.90 1.90 2.05 2.19 2.22 2.30 2.49 2.60 2.70 2.97 2.80 2.85 2.88 2.79 2.80 3.02 3.18 2.85 2.56 2.69 2.61 2.39 2.40 2.10 1.92 1.99 1.72
1.46 1.52 1.67 1.73 1.75 1.76 1.73 1.77 1.87 1.97 1.91 1.93 1.93 1.96 1.98 1.95 1.97 2.07 2.20 2.31 2.36 2.43 2.60 2.67 2.74 2.85 2.92 3.09 3.09 3.15 3.28 3.41 3.51 3.27 3.02 3.06 3.05 2.96 2.81 2.39 2.27 2.16 1.98
1.71 1.78 1.96 2.13 2.16 2.06 2.03 2.11 2.15 2.19 2.12 2.28 2.30 2.33 2.41 2.36 2.18 2.35 2.44 2.45 2.68 2.67 2.72 2.69 2.67 2.85 2.98 3.12 2.95 3.12 3.46 3.61 3.69 3.67 3.54 3.67 3.55 3.46 3.08 2.71 2.58 2.44 2.23
1.58 1.74 1.96 2.16 2.27 2.25 2.29 2.44 2.47 2.41 2.53 2.66 2.63 2.62 2.58 2.27 2.45 2.58 2.59 2.70 2.81 2.79 2.75 2.78 2.73 2.73 2.66 2.70 2.73 2.86 3.12 3.28 3.44 3.64 3.69 3.73 3.68 3.61 3.43 3.15 2.79 2.52 2.26
1.88 2.07 2.16 2.29 2.44 2.45 2.41 2.45 2.49 2.54 2.55 2.63 2.65 2.70 2.55 2.51 2.64 2.48 2.51 2.51 2.60 2.71 2.77 2.80 2.54 2.37 2.50 2.35 2.52 2.62 2.59 2.63 2.74 3.03 3.17 3.14 3.40 3.59 3.57 3.11 2.77 2.47 2.20
1.83 2.00 2.14 2.32 2.45 2.54 2.63 2.63 2.71 2.82 2.85 2.86 2.83 2.82 2.75 2.61 2.62 2.41 2.51 2.39 2.39 2.44 2.51 2.56 2.51 2.39 2.37 2.49 2.51 2.38 2.13 2.07 2.21 2.20 2.22 2.45 2.81 3.23 3.38 3.18 3.14 2.81 2.42
2.23 2.39 2.48 2.52 2.63 2.68 2.72 2.86 2.99 3.10 3.09 3.10 3.07 3.02 2.96 2.96 2.94 2.64 2.56 2.35 2.40 2.41 2.47 2.48 2.44 2.26 2.39 2.35 2.29 2.22 2.06 1.89 1.92 1.98 2.02 2.22 2.53 2.81 3.09 3.13 3.02 2.92 2.53
2.68 2.79 2.86 2.92 2.93 2.88 2.88 2.98 3.05 3.11 3.11 3.13 3.03 3.05 2.98 2.95 3.07 2.82 2.62 2.35 2.37 2.41 2.51 2.53 2.53 2.32 2.36 2.29 2.20 2.20 2.05 1.93 1.97 1.94 1.96 1.99 2.02 2.35 2.74 2.71 2.74 2.81 2.58
2.92 2.97 3.01 3.09 3.21 3.31 3.34 3.15 2.99 2.99 3.07 3.16 3.13 3.16 3.15 3.09 3.08 2.71 2.55 2.43 2.44 2.47 2.41 2.38 2.42 2.48 2.21 2.04 1.97 1.93 1.99 2.08 2.11 2.00 1.92 1.88 1.93 2.03 2.24 2.32 2.41 2.51 2.45
2.86 2.97 3.04 3.05 2.97 2.97 3.22 3.26 3.21 3.11 3.02 3.04 3.12 3.05 2.95 2.90 2.74 2.41 2.19 2.18 2.26 2.26 2.26 2.28 2.33 2.34 2.07 1.84 1.65 1.59 1.69 1.73 1.78 1.84 1.78 1.73 1.75 1.79 1.98 2.28 2.45 2.48 2.41
2.67 2.79 2.97 3.04 3.08 3.02 2.99 3.05 3.05 2.99 2.85 2.67 2.72 2.76 2.76 2.76 2.63 2.33 2.02 1.92 1.96 1.90 1.98 2.23 2.28 2.12 1.92 1.76 1.67 1.61 1.54 1.45 1.54 1.62 1.54 1.55 1.63 1.76 1.99 2.31 2.53 2.72 2.65
2.67 2.69 2.75 2.80 2.84 2.89 2.96 2.90 2.86 2.85 2.80 2.66 2.67 2.71 2.72 2.66 2.45 2.16 1.98 1.88 1.85 1.81 1.92 2.15 2.23 2.20 2.02 1.87 1.77 1.61 1.42 1.40 1.44 1.48 1.55 1.58 1.69 1.79 1.90 2.06 2.37 2.59 2.67
2.44 2.37 2.43 2.57 2.65 2.69 2.80 2.84 2.69 2.60 2.66 2.57 2.64 2.82 2.75 2.51 2.32 2.15 1.90 1.82 1.83 1.93 2.00 2.08 2.23 2.26 2.20 2.07 1.91 1.77 1.63 1.52 1.44 1.40 1.51 1.55 1.59 1.62 1.64 1.72 1.99 2.19 2.19
2.40 2.40 2.38 2.44 2.57 2.64 2.60 2.65 2.67 2.43 2.40 2.26 2.29 2.36 2.37 2.25 2.14 2.07 1.94 1.87 1.84 1.86 1.83 1.90 2.16 2.23 2.26 2.22 2.09 1.90 1.75 1.64 1.56 1.53 1.55 1.55 1.57 1.63 1.68 1.74 1.86 2.02 2.04
2.50 2.59 2.53 2.35 2.30 2.35 2.37 2.35 2.36 2.26 2.01 1.86 1.82 1.78 1.73 1.74 1.76 1.84 1.87 1.82 1.76 1.63 1.49 1.63 1.92 2.12 2.20 2.22 2.12 1.91 1.74 1.74 1.82 1.76 1.68 1.64 1.64 1.66 1.76 1.81 1.88 2.00 2.07
2.15 2.23 2.21 2.09 2.03 2.00 2.00 1.98 1.88 1.91 1.86 1.71 1.64 1.58 1.57 1.57 1.62 1.82 1.96 1.77 1.60 1.51 1.40 1.53 1.77 2.04 2.15 2.20 2.18 2.09 1.95 1.91 1.94 1.90 1.83 1.77 1.74 1.76 1.77 1.79 1.83 1.91 1.96
1.95 1.97 1.91 1.91 1.97 2.01 2.08 2.08 1.96 1.88 1.92 1.89 1.76 1.58 1.59 1.59 1.67 1.97 2.06 1.65 1.52 1.57 1.61 1.62 1.70 1.89 2.07 2.18 2.19 2.18 2.11 2.08 2.09 2.10 2.01 1.95 1.90 1.92 1.87 1.81 1.82 1.94 1.95
1.85 2.00 1.94 1.82 1.84 2.01 2.15 2.13 2.13 2.17 2.12 2.17 2.14 1.84 1.66 1.59 1.53 1.79 1.92 1.77 1.72 1.71 1.69 1.70 1.75 1.87 2.05 2.19 2.23 2.21 2.24 2.17 2.15 2.13 2.08 2.02 1.96 1.96 1.96 1.93 1.95 2.00 1.95
1.80 1.84 1.88 1.79 1.82 1.94 2.06 2.15 2.14 2.15 2.21 2.22 2.19 1.99 1.79 1.56 1.61 1.81 2.02 1.98 1.91 1.90 1.87 1.86 1.91 2.03 2.11 2.17 2.13 2.05 2.03 2.09 2.07 2.03 2.01 2.00 1.95 1.90 1.93 1.99 1.99 2.05 2.04
1.79 1.79 1.82 1.86 1.89 1.94 1.98 2.11 2.27 2.29 2.27 2.31 2.17 2.07 2.00 1.76 1.73 1.86 1.98 2.00 2.00 1.97 1.94 1.95 2.02 2.10 2.14 2.14 2.10 2.04 2.00 2.01 2.00 1.98 2.01 2.02 2.03 2.00 2.02 2.02 2.05 2.12 2.13
1.59 1.66 1.79 1.84 1.86 1.88 1.93 1.99 2.07 2.12 2.17 2.20 2.02 1.96 1.91 1.88 1.80 1.81 1.90 1.93 1.91 1.90 1.84 1.88 1.94 1.93 1.93 2.00 1.99 1.96 1.95 1.92 1.90 1.95 2.03 2.07 2.09 2.09 2.05 1.98 1.95 2.01 2.06
1.23 1.31 1.36 1.45 1.56 1.65 1.72 1.83 1.82 1.79 1.84 1.88 1.79 1.76 1.71 1.70 1.66 1.66 1.68 1.70 1.72 1.75 1.74 1.73 1.75 1.77 1.72 1.71 1.74 1.76 1.71 1.72 1.75 1.80 1.86 1.95 1.99 2.06 2.08 2.02 2.02 2.02 2.07
1.24 1.23 1.22 1.29 1.37 1.46 1.55 1.61 1.68 1.71 1.69 1.65 1.62 1.60 1.58 1.56 1.57 1.60 1.57 1.56 1.54 1.52 1.47 1.47 1.52 1.54 1.54 1.46 1.39 1.40 1.48 1.49 1.49 1.56 1.59 1.70 1.80 1.90 1.97 1.99 2.05 2.10 2.10
1.19 1.23 1.23 1.27 1.30 1.35 1.43 1.49 1.57 1.58 1.54 1.47 1.45 1.47 1.52 1.51 1.47 1.45 1.39 1.36 1.39 1.38 1.34 1.31 1.30 1.33 1.34 1.30 1.29 1.34 1.33 1.22 1.26 1.42 1.44 1.50 1.64 1.73 1.81 1.89 1.88 1.94 1.99